Torna al catalogo

HAIYANG 4A

AttivoScienzaSSO
NORAD 61936·PAYLOAD·🇨🇳 China

Lanciato Nov 13, 2024 da Taiyuan Satellite Launch Center

Loading…

Prossimi Passaggi (prossime 24 ore)

TLE

AggiornatoSource: Space-Track

Epoca: Sep 14, 2026, 15:18 UTC

1 61936U 24208A   26257.63762341  .00000310  00000-0  55646-4 0  9999
2 61936  98.0072 264.1831 0000925 110.5377 249.5930 14.73287290 98617

Traccia HAIYANG 4A in tempo reale con AllMySat

Download on the App Store